Volver al catálogo

STARLINK-4125

ActivoComunicacionesVLEO
NORAD 53244·PAYLOAD·🇺🇸 United States

Lanzado Jul 24, 2022 desde Cape Canaveral Space Force Station

Loading…

Próximos Pases (próximas 24 horas)

TLE

ActualizadoSource: CelesTrak SupGP

Época: Sep 14, 2026, 20:48 UTC

1 53244C 22086C   26257.86715278  .00017850  00000+0  57404-3 0  2572
2 53244  53.1581  63.0476 0001108  83.3339 221.8749 15.31691214    15

Sigue STARLINK-4125 en tiempo real con AllMySat

Download on the App Store